TimePDT,TemperatureF,Dew PointF,Humidity,Sea Level PressureIn,VisibilityMPH,Wind Direction,Wind SpeedMPH,Gust SpeedMPH,PrecipitationIn,Events,Conditions,WindDirDegrees,DateUTC
12:56 AM,61.0,55.9,83,29.88,10.0,SSE,10.4,-,N/A,,Scattered Clouds,150,2013-09-11 07:56:00
1:54 AM,60.8,55.4,82,29.90,10.0,SSE,6.9,-,N/A,,Mostly Cloudy,150,2013-09-11 08:54:00
1:56 AM,61.0,55.9,83,29.88,10.0,SSE,8.1,-,N/A,,Mostly Cloudy,150,2013-09-11 08:56:00
2:56 AM,61.0,55.9,83,29.89,10.0,South,3.5,-,N/A,,Overcast,170,2013-09-11 09:56:00
3:56 AM,61.0,55.0,81,29.90,10.0,South,3.5,-,N/A,,Overcast,170,2013-09-11 10:56:00
4:56 AM,61.0,55.0,81,29.90,10.0,SSE,5.8,-,N/A,,Overcast,150,2013-09-11 11:56:00
5:56 AM,61.0,55.0,81,29.92,10.0,South,3.5,-,N/A,,Overcast,170,2013-09-11 12:56:00
6:56 AM,61.0,55.0,81,29.94,10.0,South,4.6,-,N/A,,Overcast,170,2013-09-11 13:56:00
7:56 AM,61.0,55.0,81,29.95,10.0,South,4.6,-,N/A,,Overcast,170,2013-09-11 14:56:00
8:56 AM,63.0,55.9,78,29.96,10.0,SE,8.1,-,N/A,,Overcast,140,2013-09-11 15:56:00
9:56 AM,66.0,55.9,70,29.96,10.0,ESE,8.1,-,N/A,,Overcast,120,2013-09-11 16:56:00
10:12 AM,66.2,55.4,68,29.99,10.0,ESE,9.2,-,N/A,,Scattered Clouds,120,2013-09-11 17:12:00
10:56 AM,68.0,55.9,65,29.96,10.0,SE,10.4,-,N/A,,Clear,140,2013-09-11 17:56:00
11:56 AM,71.1,55.9,59,29.96,10.0,SE,11.5,-,N/A,,Clear,140,2013-09-11 18:56:00
12:56 PM,73.0,57.0,57,29.95,10.0,SE,15.0,20.7,N/A,,Clear,130,2013-09-11 19:56:00
1:56 PM,75.9,57.0,52,29.94,10.0,SSE,11.5,-,N/A,,Clear,160,2013-09-11 20:56:00
2:56 PM,79.0,57.9,48,29.91,10.0,SSE,11.5,18.4,N/A,,Clear,150,2013-09-11 21:56:00
3:56 PM,79.0,57.9,48,29.90,10.0,SSE,12.7,-,N/A,,Clear,150,2013-09-11 22:56:00
4:56 PM,79.0,57.9,48,29.89,10.0,SSE,10.4,-,N/A,,Clear,150,2013-09-11 23:56:00
5:56 PM,79.0,57.9,48,29.89,10.0,SSE,5.8,-,N/A,,Clear,160,2013-09-12 00:56:00
6:56 PM,75.0,57.9,55,29.90,10.0,SSE,5.8,-,N/A,,Clear,150,2013-09-12 01:56:00
7:56 PM,72.0,57.9,61,29.91,10.0,Calm,Calm,-,N/A,,Clear,0,2013-09-12 02:56:00
8:56 PM,69.1,57.9,68,29.93,10.0,South,5.8,-,N/A,,Clear,180,2013-09-12 03:56:00
9:56 PM,66.0,57.0,73,29.94,10.0,South,6.9,-,N/A,,Clear,190,2013-09-12 04:56:00
10:56 PM,64.0,57.0,78,29.95,10.0,South,5.8,-,N/A,,Clear,190,2013-09-12 05:56:00
11:56 PM,63.0,57.0,81,29.96,10.0,South,4.6,-,N/A,,Clear,170,2013-09-12 06:56:00